Time,TemperatureF,DewpointF,PressureIn,WindDirection,WindDirectionDegrees,WindSpeedMPH,WindSpeedGustMPH,Humidity,HourlyPrecipIn,Conditions,Clouds,dailyrainin,SoftwareType,DateUTC
2013-08-05 00:02:00,61.0,58.0,-100.00,NNW,335,1.0,1.0,89,0.00,,,0.00,,2013-08-05 04:02:00,
2013-08-05 00:12:00,61.0,58.0,-100.00,NNW,335,1.0,1.0,89,0.00,,,0.00,,2013-08-05 04:12:00,
2013-08-05 00:32:00,61.0,58.0,-100.00,SSE,161,1.0,2.0,90,0.00,,,0.00,,2013-08-05 04:32:00,
2013-08-05 00:43:00,60.0,57.0,-100.00,South,191,1.0,2.0,88,0.00,,,0.00,,2013-08-05 04:43:00,
2013-08-05 00:52:00,60.0,57.0,-100.00,South,191,1.0,2.0,88,0.00,,,0.00,,2013-08-05 04:52:00,
2013-08-05 01:02:00,60.0,57.0,-100.00,NNW,346,3.0,3.0,90,0.00,,,0.00,,2013-08-05 05:02:00,
2013-08-05 01:12:00,60.0,57.0,-100.00,NNW,346,3.0,3.0,90,0.00,,,0.00,,2013-08-05 05:12:00,
2013-08-05 01:30:00,60.0,57.0,-100.00,NNW,342,0.0,0.0,88,0.00,,,0.00,,2013-08-05 05:30:00,
2013-08-05 01:32:00,60.0,58.0,-100.00,WNW,299,1.0,1.0,92,0.00,,,0.00,,2013-08-05 05:32:00,
2013-08-05 01:43:00,60.0,58.0,-100.00,WNW,299,1.0,1.0,92,0.00,,,0.00,,2013-08-05 05:43:00,
2013-08-05 01:53:00,62.0,57.0,-100.00,NNE,25,1.0,2.0,86,0.00,,,0.00,,2013-08-05 05:53:00,
2013-08-05 02:02:00,60.0,57.0,-100.00,NNW,342,0.0,0.0,88,0.00,,,0.00,,2013-08-05 06:02:00,
2013-08-05 02:12:00,60.0,57.0,-100.00,NNW,342,0.0,0.0,88,0.00,,,0.00,,2013-08-05 06:12:00,
2013-08-05 02:22:00,60.0,57.0,-100.00,NNW,342,0.0,0.0,88,0.00,,,0.00,,2013-08-05 06:22:00,
2013-08-05 02:30:00,62.0,55.0,-100.00,ENE,71,1.0,4.0,77,0.00,,,0.00,,2013-08-05 06:30:00,
2013-08-05 02:42:00,62.0,57.0,-100.00,NE,35,2.0,3.0,85,0.00,,,0.00,,2013-08-05 06:42:00,
2013-08-05 02:52:00,62.0,57.0,-100.00,NE,35,2.0,3.0,85,0.00,,,0.00,,2013-08-05 06:52:00,
2013-08-05 03:02:00,62.0,55.0,-100.00,ENE,71,1.0,4.0,77,0.00,,,0.00,,2013-08-05 07:02:00,
2013-08-05 03:12:00,62.0,55.0,-100.00,ENE,71,1.0,4.0,77,0.00,,,0.00,,2013-08-05 07:12:00,
2013-08-05 03:22:00,62.0,55.0,-100.00,ENE,71,1.0,4.0,77,0.00,,,0.00,,2013-08-05 07:22:00,
2013-08-05 03:43:00,60.0,57.0,-100.00,NNW,340,1.0,2.0,88,0.00,,,0.00,,2013-08-05 07:43:00,
2013-08-05 03:50:00,59.0,56.0,-100.00,NNW,347,2.0,2.0,92,0.00,,,0.00,,2013-08-05 07:50:00,
2013-08-05 03:53:00,60.0,57.0,-100.00,NNW,340,1.0,2.0,88,0.00,,,0.00,,2013-08-05 07:53:00,
2013-08-05 04:02:00,59.0,56.0,-100.00,NNW,329,2.0,3.0,91,0.00,,,0.00,,2013-08-05 08:02:00,
2013-08-05 04:12:00,59.0,56.0,-100.00,NNW,329,2.0,3.0,91,0.00,,,0.00,,2013-08-05 08:12:00,
2013-08-05 04:34:00,59.0,56.0,-100.00,NNW,347,2.0,2.0,92,0.00,,,0.00,,2013-08-05 08:34:00,
2013-08-05 05:08:00,60.0,55.0,-100.00,ENE,71,2.0,4.0,85,0.00,,,0.00,,2013-08-05 09:08:00,
2013-08-05 05:20:00,60.0,55.0,-100.00,ENE,71,2.0,4.0,85,0.00,,,0.00,,2013-08-05 09:20:00,
2013-08-05 05:41:00,59.0,55.0,-100.00,NW,311,2.0,3.0,88,0.00,,,0.00,,2013-08-05 09:41:00,
2013-08-05 05:47:00,58.0,55.0,-100.00,NNW,342,2.0,3.0,91,0.00,,,0.00,,2013-08-05 09:47:00,
2013-08-05 05:53:00,58.0,55.0,-100.00,NNW,342,2.0,3.0,91,0.00,,,0.00,,2013-08-05 09:53:00,
2013-08-05 06:13:00,57.0,55.0,-100.00,NW,313,1.0,2.0,93,0.00,,,0.00,,2013-08-05 10:13:00,
2013-08-05 06:18:00,57.0,55.0,-100.00,NW,313,1.0,2.0,93,0.00,,,0.00,,2013-08-05 10:18:00,
2013-08-05 06:29:00,58.0,55.0,-100.00,NNE,13,2.0,3.0,92,0.00,,,0.00,,2013-08-05 10:29:00,
2013-08-05 06:49:00,57.0,55.0,-100.00,NE,34,2.0,3.0,92,0.00,,,0.00,,2013-08-05 10:49:00,
2013-08-05 06:50:00,57.0,55.0,-100.00,North,6,2.0,2.0,93,0.00,,,0.00,,2013-08-05 10:50:00,
2013-08-05 07:14:00,58.0,55.0,-100.00,NNE,13,2.0,3.0,92,0.00,,,0.00,,2013-08-05 11:14:00,
2013-08-05 07:38:00,57.0,55.0,-100.00,North,6,2.0,2.0,93,0.00,,,0.00,,2013-08-05 11:38:00,
2013-08-05 08:17:00,59.0,56.0,-100.00,North,354,3.0,4.0,89,0.00,,,0.00,,2013-08-05 12:17:00,
2013-08-05 08:34:00,60.0,55.0,-100.00,NNE,21,2.0,3.0,84,0.00,,,0.00,,2013-08-05 12:34:00,
2013-08-05 08:50:00,61.0,55.0,-100.00,North,354,4.0,5.0,80,0.00,,,0.00,,2013-08-05 12:50:00,
2013-08-05 09:01:00,61.0,55.0,-100.00,North,354,4.0,5.0,80,0.00,,,0.00,,2013-08-05 13:01:00,
2013-08-05 09:10:00,64.0,55.0,-100.00,North,349,4.0,6.0,73,0.00,,,0.00,,2013-08-05 13:10:00,
2013-08-05 09:38:00,63.0,56.0,-100.00,North,350,4.0,6.0,78,0.00,,,0.00,,2013-08-05 13:38:00,
2013-08-05 09:45:00,63.0,56.0,-100.00,North,350,4.0,6.0,78,0.00,,,0.00,,2013-08-05 13:45:00,
2013-08-05 10:06:00,64.0,55.0,-100.00,North,349,4.0,6.0,73,0.00,,,0.00,,2013-08-05 14:06:00,
2013-08-05 10:41:00,65.0,56.0,-100.00,NE,40,2.0,3.0,72,0.00,,,0.00,,2013-08-05 14:41:00,
2013-08-05 10:48:00,65.0,56.0,-100.00,NNE,28,3.0,4.0,72,0.00,,,0.00,,2013-08-05 14:48:00,
2013-08-05 10:54:00,65.0,56.0,-100.00,NNE,28,3.0,4.0,72,0.00,,,0.00,,2013-08-05 14:54:00,
2013-08-05 11:08:00,67.0,57.0,-100.00,North,0,3.0,4.0,69,0.00,,,0.00,,2013-08-05 15:08:00,
2013-08-05 11:39:00,69.0,57.0,-100.00,North,4,2.0,4.0,65,0.00,,,0.00,,2013-08-05 15:39:00,
2013-08-05 11:49:00,69.0,58.0,-100.00,NE,35,3.0,5.0,67,0.00,,,0.00,,2013-08-05 15:49:00,
2013-08-05 12:12:00,71.0,58.0,-100.00,ENE,68,3.0,4.0,64,0.00,,,0.00,,2013-08-05 16:12:00,
2013-08-05 12:18:00,71.0,58.0,-100.00,ENE,68,3.0,4.0,64,0.00,,,0.00,,2013-08-05 16:18:00,
2013-08-05 12:27:00,71.0,58.0,-100.00,ENE,68,3.0,4.0,64,0.00,,,0.00,,2013-08-05 16:27:00,
2013-08-05 12:33:00,71.0,58.0,-100.00,ESE,106,3.0,4.0,64,0.00,,,0.00,,2013-08-05 16:33:00,
2013-08-05 12:45:00,71.0,58.0,-100.00,NE,40,4.0,6.0,65,0.00,,,0.00,,2013-08-05 16:45:00,
2013-08-05 12:57:00,71.0,58.0,-100.00,NE,40,4.0,6.0,65,0.00,,,0.00,,2013-08-05 16:57:00,
2013-08-05 13:09:00,73.0,59.0,-100.00,SE,130,3.0,4.0,61,0.00,,,0.00,,2013-08-05 17:09:00,
2013-08-05 13:16:00,73.0,59.0,-100.00,SE,130,3.0,4.0,61,0.00,,,0.00,,2013-08-05 17:16:00,
2013-08-05 13:38:00,74.0,56.0,-100.00,SE,144,2.0,6.0,54,0.00,,,0.00,,2013-08-05 17:38:00,
2013-08-05 13:49:00,72.0,56.0,-100.00,SSE,165,5.0,9.0,56,0.00,,,0.00,,2013-08-05 17:49:00,
2013-08-05 14:01:00,72.0,56.0,-100.00,SSE,165,5.0,9.0,56,0.00,,,0.00,,2013-08-05 18:01:00,
2013-08-05 14:08:00,73.0,57.0,-100.00,SE,136,7.0,9.0,56,0.00,,,0.00,,2013-08-05 18:08:00,
2013-08-05 14:13:00,73.0,57.0,-100.00,SE,136,7.0,9.0,56,0.00,,,0.00,,2013-08-05 18:13:00,
2013-08-05 14:39:00,73.0,57.0,-100.00,South,169,7.0,9.0,57,0.00,,,0.00,,2013-08-05 18:39:00,
2013-08-05 14:44:00,73.0,60.0,-100.00,South,171,9.0,11.0,63,0.00,,,0.00,,2013-08-05 18:44:00,
2013-08-05 15:05:00,74.0,58.0,-100.00,SE,141,9.0,11.0,57,0.00,,,0.00,,2013-08-05 19:05:00,
2013-08-05 15:15:00,74.0,58.0,-100.00,SE,141,9.0,11.0,57,0.00,,,0.00,,2013-08-05 19:15:00,
2013-08-05 15:27:00,74.0,58.0,-100.00,SE,141,9.0,11.0,57,0.00,,,0.00,,2013-08-05 19:27:00,
2013-08-05 15:52:00,74.0,60.0,-100.00,SSE,151,9.0,11.0,61,0.00,,,0.00,,2013-08-05 19:52:00,
2013-08-05 16:09:00,74.0,59.0,-100.00,South,188,5.0,9.0,60,0.00,,,0.00,,2013-08-05 20:09:00,
2013-08-05 16:15:00,74.0,59.0,-100.00,South,188,5.0,9.0,60,0.00,,,0.00,,2013-08-05 20:15:00,
2013-08-05 16:30:00,75.0,60.0,-100.00,SE,133,5.0,9.0,59,0.00,,,0.00,,2013-08-05 20:30:00,
2013-08-05 16:48:00,74.0,60.0,-100.00,SE,144,7.0,8.0,63,0.00,,,0.00,,2013-08-05 20:48:00,
2013-08-05 17:20:00,75.0,60.0,-100.00,SE,133,5.0,9.0,59,0.00,,,0.00,,2013-08-05 21:20:00,
2013-08-05 17:27:00,75.0,60.0,-100.00,SE,133,5.0,9.0,59,0.00,,,0.00,,2013-08-05 21:27:00,
2013-08-05 17:30:00,73.0,61.0,-100.00,SE,130,7.0,11.0,66,0.00,,,0.00,,2013-08-05 21:30:00,
2013-08-05 18:06:00,73.0,61.0,-100.00,SE,130,7.0,11.0,66,0.00,,,0.00,,2013-08-05 22:06:00,
2013-08-05 18:10:00,74.0,62.0,-100.00,SSE,165,5.0,7.0,66,0.00,,,0.00,,2013-08-05 22:10:00,
2013-08-05 18:16:00,73.0,61.0,-100.00,SE,130,7.0,11.0,66,0.00,,,0.00,,2013-08-05 22:16:00,
2013-08-05 18:28:00,73.0,61.0,-100.00,SE,130,7.0,11.0,66,0.00,,,0.00,,2013-08-05 22:28:00,
2013-08-05 18:45:00,74.0,62.0,-100.00,SSE,165,5.0,7.0,66,0.00,,,0.00,,2013-08-05 22:45:00,
2013-08-05 18:53:00,74.0,62.0,-100.00,SSE,165,5.0,7.0,66,0.00,,,0.00,,2013-08-05 22:53:00,
2013-08-05 19:07:00,74.0,62.0,-100.00,SSE,165,5.0,7.0,66,0.00,,,0.00,,2013-08-05 23:07:00,
2013-08-05 19:10:00,72.0,62.0,-100.00,SSE,151,6.0,7.0,72,0.00,,,0.00,,2013-08-05 23:10:00,
2013-08-05 19:33:00,72.0,62.0,-100.00,SSE,154,6.0,9.0,70,0.00,,,0.00,,2013-08-05 23:33:00,
2013-08-05 19:46:00,72.0,62.0,-100.00,SSE,151,6.0,7.0,72,0.00,,,0.00,,2013-08-05 23:46:00,
2013-08-05 19:58:00,72.0,62.0,-100.00,SSE,151,6.0,7.0,72,0.00,,,0.00,,2013-08-05 23:58:00,
2013-08-05 20:30:00,69.0,62.0,-100.00,South,181,2.0,3.0,78,0.00,,,0.00,,2013-08-06 00:30:00,
2013-08-05 20:37:00,71.0,62.0,-100.00,SSE,158,4.0,5.0,73,0.00,,,0.00,,2013-08-06 00:37:00,
2013-08-05 20:45:00,71.0,62.0,-100.00,SSE,158,4.0,5.0,73,0.00,,,0.00,,2013-08-06 00:45:00,
2013-08-05 21:12:00,69.0,62.0,-100.00,South,181,2.0,3.0,78,0.00,,,0.00,,2013-08-06 01:12:00,
2013-08-05 21:28:00,69.0,62.0,-100.00,South,181,2.0,3.0,78,0.00,,,0.00,,2013-08-06 01:28:00,
2013-08-05 22:11:00,69.0,62.0,-100.00,SSW,196,0.0,1.0,79,0.00,,,0.00,,2013-08-06 02:11:00,
2013-08-05 22:27:00,69.0,62.0,-100.00,SSW,196,0.0,1.0,79,0.00,,,0.00,,2013-08-06 02:27:00,
2013-08-05 22:33:00,69.0,62.0,-100.00,SSW,203,2.0,3.0,78,0.00,,,0.00,,2013-08-06 02:33:00,
2013-08-05 22:48:00,69.0,62.0,-100.00,SSW,203,2.0,3.0,78,0.00,,,0.00,,2013-08-06 02:48:00,
2013-08-05 23:52:00,68.0,61.0,-100.00,SSW,192,4.0,6.0,79,0.00,,,0.00,,2013-08-06 03:52:00,